Madera, CA

4:12 PM PDT on August 31, 2016 (GMT -0700)
Madera Municipal

Weather History for KMAE - November, 2013

Change the Weather History Date:

Sunday, November 17, 2013

  Actual Average Record
Temperature  
Mean Temperature 53 °F 52 °F  
Max Temperature 67 °F 64 °F 80 °F (2008)
Min Temperature 38 °F 40 °F 29 °F (2000)
Degree Days  
Heating Degree Days 12    
Month to date heating degree days 145  
Since 1 July heating degree days 252  
Growing Degree Days 2 (Base 50)    
Moisture  
Dew Point 38 °F    
Average Humidity 65    
Maximum Humidity 92    
Minimum Humidity 37    
Precipitation  
Precipitation 0.00 in 0.03 in 0.48 in (2012)
Month to date precipitation 0.00 0.69  
Year to date precipitation 3.83 9.86  
Since 1 July precipitation 0.31  
Snow  
Snow 0.00 in - - ()
Month to date snowfall 0.0  
Since 1 July snowfall 0.0  
Since 1 September snowfall 0.0  
Snow Depth 0.00 in    
Sea Level Pressure  
Sea Level Pressure 30.03 in    
Wind  
Wind Speed 2 mph (NE)    
Max Wind Speed 7 mph    
Max Gust Speed 10 mph    
Visibility 10 miles    
Events      
T = Trace of Precipitation, MM = Missing Value Source: NWS Daily Summary

Daily Weather History Graph

Daily Weather History Graph

Search for Another Location

Airport or City:

Trip Planner

Search our weather history database for the weather conditions in past years. The results will help you decide how hot, cold, wet, or windy it might be!

Date:

Astronomy

Nov. 17, 2013 Rise Set
Actual Time 6:41 AM PST 4:49 PM PST
Civil Twilight 6:13 AM PST 5:17 PM PST
Nautical Twilight 5:42 AM PST 5:48 PM PST
Astronomical Twilight 5:11 AM PST 6:19 PM PST
Moon 5:09 PM PST (11/17) 6:40 AM PST (11/17)
Length of Visible Light 11h 03m
Length of Day
10h 07m
Full, 100% of the Moon is Illuminated
Nov 17
Full
Nov 25
Last Quarter
Dec 2
New
Dec 9
First Quarter
Dec 17
Full

Hourly Weather History & Observations

Time (PST) Temp. Windchill Dew Point Humidity Pressure Visibility Wind Dir Wind Speed Gust Speed Precip Events Conditions
12:53 AM 43.0 °F 41.3 °F 37.9 °F 82% 29.93 in 10.0 mi North 3.5 mph - N/A   Clear
1:53 AM 42.1 °F - 37.0 °F 82% 29.94 in 10.0 mi Calm Calm - N/A   Clear
2:53 AM 37.9 °F - 35.1 °F 89% 29.94 in 10.0 mi Calm Calm - N/A   Clear
3:53 AM 37.9 °F - 35.1 °F 89% 29.95 in 10.0 mi Calm Calm - N/A   Clear
4:53 AM 39.9 °F 37.8 °F 36.0 °F 86% 29.96 in 10.0 mi ENE 3.5 mph - N/A   Clear
5:53 AM 39.0 °F - 34.0 °F 82% 29.98 in 9.0 mi Calm Calm - N/A   Clear
6:53 AM 39.0 °F 36.8 °F 33.1 °F 79% 30.01 in 10.0 mi NE 3.5 mph - N/A   Clear
7:53 AM 44.1 °F 41.5 °F 36.0 °F 73% 30.03 in 10.0 mi East 4.6 mph - N/A   Clear
8:53 AM 53.1 °F - 39.0 °F 59% 30.06 in 10.0 mi ESE 4.6 mph - N/A   Clear
9:53 AM 55.9 °F - 39.9 °F 55% 30.08 in 10.0 mi Calm Calm - N/A   Clear
10:53 AM 60.1 °F - 39.0 °F 46% 30.08 in 10.0 mi Calm Calm - N/A   Clear
11:53 AM 64.9 °F - 39.0 °F 39% 30.05 in 10.0 mi North 3.5 mph - N/A   Clear
12:53 PM 64.9 °F - 39.9 °F 40% 30.04 in 10.0 mi Variable 3.5 mph - N/A   Clear
1:53 PM 66.0 °F - 39.0 °F 37% 30.03 in 10.0 mi NNW 4.6 mph - N/A   Clear
2:53 PM 66.0 °F - 39.9 °F 38% 30.02 in 10.0 mi Variable 3.5 mph - N/A   Clear
3:53 PM 64.9 °F - 39.9 °F 40% 30.03 in 10.0 mi Calm Calm - N/A   Clear
4:53 PM 57.9 °F - 41.0 °F 53% 30.03 in 10.0 mi West 4.6 mph - N/A   Clear
5:53 PM 55.0 °F - 42.1 °F 62% 30.04 in 10.0 mi Calm Calm - N/A   Clear
6:53 PM 51.1 °F - 41.0 °F 68% 30.05 in 10.0 mi Calm Calm - N/A   Clear
7:53 PM 50.0 °F - 42.1 °F 74% 30.06 in 10.0 mi Calm Calm - N/A   Clear
8:53 PM 48.9 °F - 39.9 °F 71% 30.07 in 9.0 mi ENE 4.6 mph - N/A   Clear
9:53 PM 50.0 °F - 39.0 °F 66% 30.08 in 10.0 mi NE 3.5 mph - N/A   Clear
10:53 PM 46.0 °F 43.1 °F 37.0 °F 71% 30.09 in 10.0 mi East 5.8 mph - N/A   Clear
11:53 PM 46.0 °F 43.1 °F 35.1 °F 66% 30.09 in 10.0 mi East 5.8 mph - N/A   Clear